ROMMA est une association bénévole à but non lucratif. Votre soutien est indispensable : ADHERER à ROMMA ou FAIRE un DON

Saint-Martin-d'Hères - (38, Isère)

Vallée du Grésivaudan (220 m)   Longitude: 05° 45' 05" E   Latitude: 45° 10' 02" N Station partenaire n°4
 

Détail journalier du     <<     >>

Température Precipitation Humidité Pression Vent Dir Rafale Dir. rafale Ensol.
Heure (°C) (mm) (%) (hPa) (km/h) (km/h) (min)
01:00 11.1087101800---0
02:00 10.9088101700---0
03:00 10.7089101703S0
04:00 10.2090101600---0
05:00 10.1090101602SSE0
06:00 10.2090101600---0
07:00 9.9089101508SSE0
08:00 9.6091101508NO0
09:00 9.3092101503NNO0
10:00 9.5091101602NNO0
11:00 9.8090101500---0
12:00 10.108910142NNO10NNO0
13:00 11.708510137NNO16NNO10
14:00 13.707510132NNO11NO40
15:00 14.907110122SSO11SSO0
16:00 15.607010111N6NNO0
17:00 17.206910101S8S60
18:00 15.4076101005NO10
19:00 13.2083101000---0
20:00 12.4086101000---0
21:00 11.6089101000---0
22:00 11.3091100900---0
23:00 10.7092101000---0
minuit 10.6093101000---0

Graphique du 26-10-2018

 

Serveur OMMA